Weather History for KISN - April, 2014

Change the Weather History Date:

Monday, April 28, 2014

  Actual Average Record
Temperature  
Mean Temperature 36 °F 48 °F  
Max Temperature 39 °F 62 °F 91 °F (1952)
Min Temperature 33 °F 34 °F 15 °F (1958)
Degree Days  
Heating Degree Days 29 17  
Month to date heating degree days 686 618  
Since 1 July heating degree days 8838 8493  
Cooling Degree Days 0 0  
Month to date cooling degree days 0 0  
Year to date cooling degree days 0 0  
Moisture  
Dew Point 32 °F    
Average Humidity 89    
Maximum Humidity 96    
Minimum Humidity 82    
Precipitation  
Precipitation 0.71 in 0.05 in 1.02 in (1970)
Month to date precipitation 1.64 0.91  
Year to date precipitation 2.40 2.60  
Sea Level Pressure  
Sea Level Pressure 29.79 in    
Wind  
Wind Speed 9 mph (North)    
Max Wind Speed 16 mph    
Max Gust Speed 21 mph    
Visibility 5 miles    
Events Fog , Rain , Snow    
T = Trace of Precipitation, MM = Missing Value Source: NWS Daily Summary

Daily Weather History Graph

Daily Weather History Graph

Search for Another Location

Airport or City:

Trip Planner

Search our weather history database for the weather conditions in past years. The results will help you decide how hot, cold, wet, or windy it might be!

Date:

Astronomy

Apr. 28, 2014 Rise Set
Actual Time 6:40 AM CDT 9:04 PM CDT
Civil Twilight 6:06 AM CDT 9:38 PM CDT
Nautical Twilight 5:23 AM CDT 10:22 PM CDT
Astronomical Twilight 4:34 AM CDT 11:11 PM CDT
Moon 6:25 AM CDT (4/28) 8:42 PM CDT (4/28)
Length of Visible Light 15h 32m
Length of Day
14h 23m
Waning Crescent, 0% of the Moon is Illuminated
Apr 28
Waning Crescent
Apr 29
New
May 6
First Quarter
May 14
Full
May 21
Last Quarter

Hourly Weather History & Observations

Time (CDT) Temp. Windchill Dew Point Humidity Pressure Visibility Wind Dir Wind Speed Gust Speed Precip Events Conditions
12:09 AM 35.1 °F 30.1 °F 32.0 °F 89% 29.66 in 10.0 mi ENE 5.8 mph - N/A   Overcast
12:52 AM 34.0 °F 28.8 °F 32.0 °F 92% 29.70 in 5.0 mi NE 5.8 mph - 0.01 in Snow Light Snow
1:24 AM 33.1 °F 27.7 °F 32.0 °F 96% 29.63 in 1.8 mi NNE 5.8 mph - 0.01 in Snow Light Snow
1:49 AM 33.8 °F 27.7 °F 30.2 °F 87% 29.63 in 0.8 mi NNE 6.9 mph - 0.06 in Snow Light Snow
1:52 AM 33.1 °F 27.7 °F 30.9 °F 92% 29.69 in 0.8 mi NNE 5.8 mph - 0.06 in Snow Light Snow
2:19 AM 33.1 °F 27.7 °F 32.0 °F 96% 29.63 in 1.0 mi NNE 5.8 mph - 0.05 in Snow Light Snow
2:30 AM 33.1 °F 27.7 °F 32.0 °F 96% 29.63 in 0.8 mi North 5.8 mph - 0.08 in Snow Light Snow
2:42 AM 33.1 °F 27.7 °F 32.0 °F 96% 29.63 in 1.0 mi North 5.8 mph - 0.09 in Snow Light Snow
2:52 AM 33.1 °F 28.7 °F 32.0 °F 96% 29.69 in 1.2 mi North 4.6 mph - 0.11 in Snow Light Snow
3:52 AM 33.1 °F 27.7 °F 32.0 °F 96% 29.69 in 1.0 mi North 5.8 mph - 0.06 in Snow Light Snow
3:57 AM 33.1 °F 27.7 °F 32.0 °F 96% 29.63 in 1.2 mi North 5.8 mph - 0.00 in Snow Light Snow
4:12 AM 33.1 °F 27.7 °F 32.0 °F 96% 29.63 in 2.0 mi North 5.8 mph - 0.01 in Snow Light Snow
4:20 AM 33.1 °F 27.7 °F 32.0 °F 96% 29.63 in 2.5 mi NNW 5.8 mph - 0.02 in Snow Light Snow
4:29 AM 33.1 °F 27.7 °F 32.0 °F 96% 29.63 in 3.0 mi NNW 5.8 mph - 0.02 in Snow Light Snow
4:52 AM 33.8 °F 28.6 °F 32.0 °F 93% 29.63 in 3.0 mi NNW 5.8 mph - N/A Snow Light Snow
4:57 AM 33.1 °F 26.9 °F 32.0 °F 96% 29.63 in 2.5 mi NNW 6.9 mph - 0.01 in Snow Light Snow
5:13 AM 33.1 °F 27.7 °F 32.0 °F 96% 29.63 in 1.8 mi North 5.8 mph - 0.02 in Snow Light Snow
5:52 AM 33.1 °F 26.9 °F 30.9 °F 92% 29.70 in 1.0 mi North 6.9 mph - 0.07 in Snow Light Snow
6:17 AM 33.1 °F 23.0 °F 30.9 °F 92% 29.64 in 0.8 mi NNW 15.0 mph - 0.07 in Snow Light Snow
6:52 AM 33.1 °F 26.9 °F 30.9 °F 92% 29.71 in 0.5 mi North 6.9 mph - 0.17 in Fog , Snow Snow
7:14 AM 33.1 °F 27.7 °F 32.0 °F 96% 29.66 in 0.8 mi North 5.8 mph - 0.03 in Snow Light Snow
7:36 AM 33.1 °F 27.7 °F 32.0 °F 96% 29.66 in 1.0 mi North 5.8 mph - 0.05 in Snow Light Snow
7:50 AM 33.8 °F 29.6 °F 32.0 °F 93% 29.67 in 2.5 mi NNE 4.6 mph - 0.06 in Snow Light Snow
7:52 AM 33.1 °F 28.7 °F 32.0 °F 96% 29.73 in 3.0 mi NNE 4.6 mph - 0.06 in Snow Light Snow
8:24 AM 33.1 °F 28.7 °F 32.0 °F 96% 29.69 in 2.5 mi NNE 4.6 mph - 0.00 in Snow Light Snow
8:30 AM 34.0 °F 29.8 °F 32.0 °F 92% 29.69 in 2.5 mi North 4.6 mph - 0.00 in Snow Light Snow
8:42 AM 34.0 °F 31.0 °F 32.0 °F 92% 29.69 in 2.5 mi North 3.5 mph - 0.01 in Snow Light Snow
8:52 AM 33.8 °F 30.8 °F 32.0 °F 93% 29.69 in 3.0 mi North 3.5 mph - N/A Snow Light Snow
9:52 AM 35.6 °F 32.8 °F 32.0 °F 87% 29.69 in 10.0 mi NNW 3.5 mph - N/A   Overcast
10:52 AM 36.0 °F 32.1 °F 32.0 °F 86% 29.78 in 10.0 mi North 4.6 mph - N/A   Overcast
11:46 AM 37.4 °F 33.8 °F 33.8 °F 87% 29.74 in 10.0 mi NNW 4.6 mph - N/A   Overcast
11:52 AM 37.0 °F 34.5 °F 33.1 °F 86% 29.81 in 10.0 mi North 3.5 mph - N/A   Overcast
1:52 PM 37.9 °F 31.5 °F 32.0 °F 79% 29.85 in 10.0 mi North 9.2 mph - N/A   Overcast
2:44 PM 37.9 °F 30.5 °F 32.0 °F 79% 29.80 in 10.0 mi North 11.5 mph - N/A   Overcast
2:52 PM 37.4 °F 29.8 °F 32.0 °F 81% 29.81 in 10.0 mi North 11.5 mph - N/A   Overcast
3:52 PM 37.9 °F 30.5 °F 32.0 °F 79% 29.89 in 10.0 mi North 11.5 mph - N/A   Overcast
4:14 PM 37.9 °F 30.9 °F 33.1 °F 83% 29.83 in 10.0 mi North 10.4 mph - N/A   Overcast
4:52 PM 37.4 °F 28.5 °F 33.8 °F 87% 29.85 in 10.0 mi North 15.0 mph - N/A   Overcast
5:06 PM 37.0 °F 28.9 °F 33.1 °F 86% 29.86 in 10.0 mi North 12.7 mph - N/A   Overcast
5:18 PM 37.0 °F 28.5 °F 33.1 °F 86% 29.87 in 10.0 mi North 13.8 mph - N/A   Overcast
5:52 PM 36.0 °F 28.0 °F 34.0 °F 93% 29.95 in 3.0 mi North 11.5 mph - 0.00 in Rain Light Rain
6:27 PM 36.0 °F 28.0 °F 33.1 °F 89% 29.90 in 4.0 mi North 11.5 mph - 0.01 in Rain Light Rain
6:40 PM 36.0 °F 27.5 °F 33.1 °F 89% 29.91 in 4.0 mi North 12.7 mph - 0.01 in Rain Light Rain
6:52 PM 35.1 °F 25.9 °F 33.1 °F 92% 29.99 in 4.0 mi North 13.8 mph - 0.02 in Rain Light Rain
7:03 PM 34.0 °F 25.0 °F 32.0 °F 92% 29.92 in 2.5 mi North 12.7 mph - 0.01 in Snow Light Snow
7:13 PM 34.0 °F 25.0 °F 32.0 °F 92% 29.92 in 3.0 mi North 12.7 mph - 0.01 in Snow Light Snow
7:31 PM 34.0 °F 26.6 °F 32.0 °F 92% 29.93 in 2.5 mi North 9.2 mph - 0.03 in Snow Light Snow
7:38 PM 34.0 °F 25.0 °F 32.0 °F 92% 29.94 in 3.0 mi North 12.7 mph - 0.03 in Snow Light Snow
7:52 PM 34.0 °F 25.5 °F 32.0 °F 92% 30.01 in 4.0 mi NNW 11.5 mph - 0.04 in Snow Light Snow
8:50 PM 33.8 °F 24.3 °F 32.0 °F 93% 29.97 in 7.0 mi NNW 13.8 mph - 0.01 in Snow Light Snow
8:52 PM 34.0 °F 25.0 °F 32.0 °F 92% 30.03 in 7.0 mi NNW 12.7 mph - 0.01 in Snow Light Snow
9:46 PM 34.0 °F 25.5 °F 32.0 °F 92% 29.99 in 8.0 mi North 11.5 mph - 0.01 in Snow Light Snow
9:52 PM 33.8 °F 24.3 °F 32.0 °F 93% 29.99 in 8.0 mi North 13.8 mph - N/A Snow Light Snow
10:52 PM 34.0 °F 24.6 °F 32.0 °F 92% 30.07 in 6.0 mi North 13.8 mph - 0.01 in Snow Light Snow
11:04 PM 34.0 °F 25.0 °F 32.0 °F 92% 30.01 in 6.0 mi North 12.7 mph - 0.00 in Snow Light Snow
11:41 PM 34.0 °F 25.0 °F 32.0 °F 92% 30.03 in 5.0 mi North 12.7 mph - 0.01 in Snow Light Snow
11:52 PM 34.0 °F 25.0 °F 32.0 °F 92% 30.09 in 4.0 mi North 12.7 mph - 0.01 in Snow Light Snow